This is the latest recevied weather packets stored in our database for station/object KB1FFS. If no packets are shown the sender has not sent any weather packets the latest 10 day(s).
| Time | Temp. | Humidity | Pressure | Rain* | Wind** | Luminosity | Snow |
|---|---|---|---|---|---|---|---|
| 1777803685 | 12.78° C | 76% | 1021 hPa | 0 mm | - | 0 W/m² | - |
| 1777803381 | 12.78° C | 75% | 1021.1 hPa | 0 mm | - | 0 W/m² | - |
| 1777803079 | 12.78° C | 75% | 1020.9 hPa | 0 mm | - | 0 W/m² | - |
| 1777802776 | 13.33° C | 77% | 1021.1 hPa | 0 mm | - | 0 W/m² | - |
| 1777802474 | 13.33° C | 78% | 1021 hPa | 0 mm | - | 0 W/m² | - |
| 1777802172 | 13.33° C | 75% | 1021 hPa | 0 mm | - | 0 W/m² | - |
| 1777801870 | 13.33° C | 73% | 1020.9 hPa | 0 mm | - | 0 W/m² | - |
| 1777801566 | 13.33° C | 73% | 1021.2 hPa | 0 mm | - | 0 W/m² | - |
| 1777801263 | 13.33° C | 72% | 1021.1 hPa | 0 mm | - | 0 W/m² | - |
| 1777800959 | 13.89° C | 72% | 1021 hPa | 0 mm | - | 0 W/m² | - |
| 1777800657 | 13.89° C | 72% | 1021 hPa | 0 mm | - | 0 W/m² | - |
| 1777800352 | 13.89° C | 72% | 1020.9 hPa | 0 mm | - | 0 W/m² | - |
| 1777800049 | 13.89° C | 72% | 1020.9 hPa | 0 mm | - | 0 W/m² | - |
| 1777799744 | 13.89° C | 73% | 1020.9 hPa | 0 mm | - | 0 W/m² | - |
| 1777799442 | 13.89° C | 72% | 1021 hPa | 0 mm | - | 0 W/m² | - |
| 1777799137 | 13.89° C | 72% | 1021.1 hPa | 0 mm | - | 0 W/m² | - |
| 1777798833 | 13.89° C | 72% | 1020.8 hPa | 0 mm | - | 0 W/m² | - |
| 1777798529 | 13.89° C | 72% | 1020.8 hPa | 0 mm | - | 0 W/m² | - |
| 1777798227 | 13.89° C | 72% | 1020.9 hPa | 0 mm | - | 0 W/m² | - |
| 1777797923 | 13.89° C | 72% | 1021 hPa | 0 mm | - | 0 W/m² | - |
| 1777797621 | 13.89° C | 72% | 1020.8 hPa | 0 mm | - | 0 W/m² | - |
| 1777797319 | 13.89° C | 72% | 1020.8 hPa | 0 mm | - | 0 W/m² | - |
| 1777797016 | 13.89° C | 72% | 1020.9 hPa | 0 mm | - | 0 W/m² | - |
| 1777796712 | 13.89° C | 71% | 1020.8 hPa | 0 mm | - | 0 W/m² | - |
| 1777796409 | 13.89° C | 72% | 1020.9 hPa | 0 mm | - | 0 W/m² | - |
* Rain latest hour (hover to see other rain measurements)
** Current wind speed in m/s (hover to see current wind gust speed)